Location: Glion
(46.4330°N, 6.9246°E)
Time: 16:57:15
(UTC+00:00)

Cosmos 1500 - Pass Details

Date: 03 March 2021
Orbit: 499 x 517 km, 82.5° (Epoch: 22 April)

Event Time Altitude Azimuth Distance (km) Brightness Sun altitude
Rises 18:46:24 0° 191° (SSW) 2,578 6.8 -15.4°
Reaches altitude 10° 18:48:30 10° 193° (SSW) 1,699 5.9 -15.8°
Maximum altitude 18:52:13 75° 279° (W) 522 3.3 -16.4°
Drops below altitude 10° 18:55:58 10° 6° (N) 1,715 5.9 -17.1°
Sets 18:58:06 0° 8° (N) 2,605 6.8 -17.4°
